Location: Boston
(42.3580°N, 71.0600°W)
Time: 17:13:36
(UTC-05:00)

Vanguard 2 - Visible Passes

Search period start: 18 February 2018 00:00
Search period end: 28 February 2018 00:00
Orbit: 553 x 2939 km, 32.9° (Epoch: 18 February)

Date Brightness Start Highest point End Pass type
(mag) Time Alt. Az. Time Alt. Az. Time Alt. Az.
18 Feb 8.7 19:29:49 10° WSW 19:36:41 34° S 19:37:19 33° S visible
19 Feb 8.8 19:47:49 10° WSW 19:54:33 34° S 19:54:33 34° S visible
20 Feb 9.5 17:54:48 10° WSW 18:04:09 38° S 18:10:04 10° ESE visible
20 Feb 9.1 20:05:56 10° WSW 20:11:45 32° SSW 20:11:45 32° SSW visible
21 Feb 9.3 18:12:41 10° WSW 18:22:07 41° S 18:27:32 13° ESE visible
21 Feb 9.4 20:24:07 10° WSW 20:28:58 27° SW 20:28:58 27° SW visible
22 Feb 9.3 18:30:41 10° WSW 18:40:04 42° S 18:44:44 17° ESE visible
22 Feb 9.8 20:42:27 10° WSW 20:46:11 21° SW 20:46:11 21° SW visible
23 Feb 9.2 18:48:47 10° WSW 18:57:58 41° S 19:01:57 21° SE visible
23 Feb 10.2 21:00:59 10° WSW 21:03:24 16° WSW 21:03:24 16° WSW visible
24 Feb 9.2 19:06:58 10° W 19:15:49 38° SSW 19:19:11 23° SE visible
24 Feb 10.5 21:20:00 10° WSW 21:20:37 11° WSW 21:20:37 11° WSW visible
25 Feb 9.3 19:25:14 10° W 19:33:36 34° SSW 19:36:25 24° SSE visible
26 Feb 9.5 19:43:37 10° W 19:51:16 28° SSW 19:53:41 23° S visible
27 Feb 9.8 17:49:02 10° W 18:00:52 47° SSW 18:08:06 10° ESE visible
27 Feb 9.8 20:02:11 10° W 20:08:50 22° SW 20:10:58 20° S visible
